| time (UTC) | temp F | wind direction | speed MPH | gust MPH | rain 1hr in | rain 24hr in | rain mn in | humidity % | barometer mb |
| 20260502231325 | 65 | 178 | 4.0 | 11.0 | 0.00 | 0.00 | 0.00 | 20 | 1014.0 |
| 20260502225123 | 65 | 130 | 3.0 | 11.0 | 0.00 | 0.00 | 0.00 | 20 | 1014.1 |
| 20260502224130 | 65 | 146 | 6.0 | 13.0 | 0.00 | 0.00 | 0.00 | 19 | 1014.2 |
| 20260502223151 | 65 | 186 | 4.0 | 15.0 | 0.00 | 0.00 | 0.00 | 20 | 1014.3 |
| 20260502222214 | 65 | 195 | 4.0 | 18.0 | 0.00 | 0.00 | 0.00 | 20 | 1014.4 |
| 20260502221149 | 65 | 178 | 4.0 | 18.0 | 0.00 | 0.00 | 0.00 | 22 | 1014.7 |
| 20260502220126 | 65 | 196 | 1.0 | 11.0 | 0.00 | 0.00 | 0.00 | 22 | 1014.8 |
| 20260502214029 | 64 | 145 | 7.0 | 15.0 | 0.00 | 0.00 | 0.00 | 21 | 1015.3 |
| 20260502212957 | 65 | 177 | 4.0 | 12.0 | 0.00 | 0.00 | 0.00 | 21 | 1015.4 |
| 20260502211934 | 65 | 153 | 1.0 | 11.0 | 0.00 | 0.00 | 0.00 | 20 | 1015.6 |
| 20260502210937 | 64 | 182 | 0.0 | 4.0 | 0.00 | 0.00 | 0.00 | 24 | 1015.8 |
| 20260502205944 | 64 | 134 | 4.0 | 8.0 | 0.00 | 0.00 | 0.00 | 23 | 1016.1 |
| 20260502204954 | 64 | 116 | 0.0 | 0.0 | 0.00 | 0.00 | 0.00 | 22 | 1016.2 |
| 20260502202848 | 63 | 184 | 4.0 | 3.0 | 0.00 | 0.00 | 0.00 | 24 | 1016.5 |
| 20260502201911 | 64 | 178 | 4.0 | 15.0 | 0.00 | 0.00 | 0.00 | 25 | 1016.6 |
| 20260502200849 | 63 | 128 | 1.0 | 10.0 | 0.00 | 0.00 | 0.00 | 25 | 1016.7 |
| 20260502194748 | 62 | 143 | 4.0 | 14.0 | 0.00 | 0.00 | 0.00 | 24 | 1017.1 |
| 20260502193803 | 62 | 125 | 4.0 | 13.0 | 0.00 | 0.00 | 0.00 | 24 | 1017.3 |
| 20260502192752 | 61 | 157 | 0.0 | 8.0 | 0.00 | 0.00 | 0.00 | 28 | 1017.2 |
| 20260502190712 | 61 | 138 | 1.0 | 8.0 | 0.00 | 0.00 | 0.00 | 28 | 1017.5 |
| 20260502185639 | 61 | 180 | 7.0 | 15.0 | 0.00 | 0.00 | 0.00 | 28 | 1017.7 |
| 20260502184653 | 61 | 139 | 4.0 | 14.0 | 0.00 | 0.00 | 0.00 | 28 | 1017.9 |
| 20260502183627 | 61 | 130 | 7.0 | 21.0 | 0.00 | 0.00 | 0.00 | 28 | 1018.0 |
| 20260502182614 | 61 | 140 | 8.0 | 17.0 | 0.00 | 0.00 | 0.00 | 27 | 1018.2 |
| 20260502181622 | 60 | 174 | 6.0 | 18.0 | 0.00 | 0.00 | 0.00 | 29 | 1018.2 |
| 20260502180552 | 59 | 79 | 4.0 | 18.0 | 0.00 | 0.00 | 0.00 | 29 | 1018.4 |
| 20260502163522 | 56 | 100 | 9.0 | 16.0 | 0.00 | 0.00 | 0.00 | 37 | 1018.5 |
| 20260502162530 | 56 | 109 | 11.0 | 18.0 | 0.00 | 0.00 | 0.00 | 36 | 1018.5 |
| 20260502161544 | 56 | 115 | 13.0 | 18.0 | 0.00 | 0.00 | 0.00 | 35 | 1018.6 |
| 20260502160527 | 55 | 138 | 9.0 | 14.0 | 0.00 | 0.00 | 0.00 | 38 | 1018.6 |
| 20260502152250 | 53 | 97 | 10.0 | 18.0 | 0.00 | 0.00 | 0.00 | 39 | 1018.4 |
| 20260502151239 | 53 | 78 | 7.0 | 15.0 | 0.00 | 0.00 | 0.00 | 42 | 1018.4 |
| 20260502150240 | 51 | 81 | 8.0 | 14.0 | 0.00 | 0.00 | 0.00 | 45 | 1018.5 |
| 20260502130717 | 41 | 51 | 8.0 | 13.0 | 0.00 | 0.00 | 0.00 | 64 | 1018.1 |
| 20260502122520 | 37 | 51 | 4.0 | 13.0 | 0.00 | 0.00 | 0.00 | 68 | 1017.8 |
| 20260502121530 | 37 | 51 | 7.0 | 13.0 | 0.00 | 0.00 | 0.00 | 68 | 1017.7 |
| 20260502115354 | 38 | 49 | 10.0 | 13.0 | 0.00 | 0.00 | 0.00 | 68 | 1017.6 |
| 20260502114401 | 37 | 49 | 9.0 | 13.0 | 0.00 | 0.00 | 0.00 | 69 | 1017.6 |
| 20260502113408 | 37 | 49 | 10.0 | 13.0 | 0.00 | 0.00 | 0.00 | 69 | 1017.6 |
| 20260502112403 | 37 | 44 | 10.0 | 15.0 | 0.00 | 0.00 | 0.00 | 69 | 1017.5 |
| 20260502111331 | 38 | 40 | 11.0 | 15.0 | 0.00 | 0.00 | 0.00 | 68 | 1017.5 |
| 20260502110340 | 38 | 46 | 9.0 | 13.0 | 0.00 | 0.00 | 0.00 | 68 | 1017.5 |
| 20260502105356 | 38 | 51 | 7.0 | 12.0 | 0.00 | 0.00 | 0.00 | 68 | 1017.5 |
| 20260502104326 | 38 | 53 | 7.0 | 11.0 | 0.00 | 0.00 | 0.00 | 68 | 1017.5 |
| 20260502103328 | 39 | 55 | 4.0 | 12.0 | 0.00 | 0.00 | 0.00 | 67 | 1017.6 |
| 20260502102330 | 39 | 55 | 6.0 | 12.0 | 0.00 | 0.00 | 0.00 | 68 | 1017.7 |
| 20260502101352 | 38 | 53 | 4.0 | 12.0 | 0.00 | 0.00 | 0.00 | 69 | 1017.8 |
| 20260502100357 | 38 | 51 | 7.0 | 11.0 | 0.00 | 0.00 | 0.00 | 69 | 1017.7 |
| 20260502091038 | 38 | 42 | 1.0 | 10.0 | 0.00 | 0.00 | 0.00 | 70 | 1017.5 |
| 20260502070458 | 38 | 58 | 0.0 | 9.0 | 0.00 | 0.00 | 0.00 | 65 | 1016.9 |
| 20260502065455 | 39 | 61 | 3.0 | 10.0 | 0.00 | 0.00 | 0.00 | 64 | 1016.9 |
| 20260502064449 | 39 | 109 | 0.0 | 8.0 | 0.00 | 0.00 | 0.00 | 63 | 1016.8 |
| 20260502063514 | 40 | 112 | 0.0 | 5.0 | 0.00 | 0.00 | 0.00 | 62 | 1016.6 |
| 20260502062519 | 40 | 122 | 0.0 | 0.0 | 0.00 | 0.00 | 0.00 | 62 | 1016.5 |
| 20260502055217 | 40 | 124 | 0.0 | 0.0 | 0.00 | 0.00 | 0.00 | 61 | 1016.2 |
| 20260502054157 | 40 | 123 | 0.0 | 0.0 | 0.00 | 0.00 | 0.00 | 60 | 1016.1 |
| 20260502053137 | 41 | 124 | 0.0 | 0.0 | 0.00 | 0.00 | 0.00 | 60 | 1016.0 |
| 20260502052117 | 41 | 124 | 0.0 | 2.0 | 0.00 | 0.00 | 0.00 | 60 | 1016.0 |
| 20260502051100 | 41 | 124 | 0.0 | 0.0 | 0.00 | 0.00 | 0.00 | 58 | 1016.0 |
| 20260502044910 | 43 | 124 | 1.0 | 9.0 | 0.00 | 0.00 | 0.00 | 55 | 1015.8 |
| 20260502043932 | 44 | 124 | 3.0 | 0.0 | 0.00 | 0.00 | 0.00 | 52 | 1015.6 |
| 20260502042914 | 44 | 113 | 6.0 | 13.0 | 0.00 | 0.00 | 0.00 | 51 | 1015.6 |
| 20260502041852 | 44 | 121 | 8.0 | 13.0 | 0.00 | 0.00 | 0.00 | 53 | 1015.3 |
| 20260502040901 | 44 | 158 | 1.0 | 9.0 | 0.00 | 0.00 | 0.00 | 50 | 1015.2 |
| 20260502035924 | 44 | 46 | 6.0 | 12.0 | 0.00 | 0.00 | 0.00 | 48 | 1014.8 |
| 20260502032609 | 46 | 26 | 6.0 | 11.0 | 0.00 | 0.00 | 0.00 | 45 | 1013.9 |
| 20260502030443 | 46 | 10 | 3.0 | 11.0 | 0.00 | 0.00 | 0.00 | 45 | 1013.4 |
| 20260502025425 | 47 | 32 | 4.0 | 11.0 | 0.00 | 0.00 | 0.00 | 45 | 1013.0 |
| 20260502022240 | 49 | 44 | 4.0 | 10.0 | 0.00 | 0.00 | 0.00 | 42 | 1012.4 |
| 20260502021216 | 49 | 38 | 4.0 | 13.0 | 0.00 | 0.00 | 0.00 | 41 | 1012.4 |
| 20260502020222 | 50 | 54 | 4.0 | 13.0 | 0.00 | 0.00 | 0.00 | 40 | 1012.2 |
| 20260502015157 | 52 | 56 | 4.0 | 12.0 | 0.00 | 0.00 | 0.00 | 37 | 1012.0 |
| 20260502014136 | 53 | 60 | 0.0 | 8.0 | 0.00 | 0.00 | 0.00 | 35 | 1011.8 |
| 20260502013156 | 53 | 55 | 0.0 | 1.0 | 0.00 | 0.00 | 0.00 | 34 | 1011.6 |
| 20260502012129 | 54 | 63 | 1.0 | 9.0 | 0.00 | 0.00 | 0.00 | 34 | 1011.4 |
| 20260502011106 | 54 | 63 | 3.0 | 11.0 | 0.00 | 0.00 | 0.00 | 34 | 1011.3 |
| 20260502010041 | 54 | 68 | 4.0 | 11.0 | 0.00 | 0.00 | 0.00 | 35 | 1011.0 |
| 20260502003935 | 54 | 22 | 4.0 | 13.0 | 0.00 | 0.00 | 0.00 | 37 | 1010.9 |
| 20260502002915 | 54 | 54 | 11.0 | 20.0 | 0.00 | 0.00 | 0.00 | 38 | 1010.6 |
| 20260502001907 | 54 | 51 | 13.0 | 20.0 | 0.00 | 0.00 | 0.00 | 38 | 1010.6 |
| 20260502000930 | 56 | 49 | 13.0 | 18.0 | 0.00 | 0.00 | 0.00 | 36 | 1010.5 |
| 20260501234846 | 58 | 61 | 14.0 | 18.0 | 0.00 | 0.00 | 0.00 | 33 | 1010.2 |
| 20260501233856 | 58 | 38 | 10.0 | 18.0 | 0.00 | 0.00 | 0.00 | 32 | 1010.0 |
| 20260501232909 | 61 | 63 | 8.0 | 17.0 | 0.00 | 0.00 | 0.00 | 30 | 1010.0 |
| 20260501231846 | 63 | 261 | 0.0 | 11.0 | 0.00 | 0.00 | 0.00 | 17 | 1009.8 |